EW0724 Weather Reports


time (UTC)temp
C
wind
direction
speed
KPH
gust
KPH
rain 1hr
cm
rain 24hr
cm
rain mn
cm
humidity
%
barometer
mb
20260906003028 27 298 1.6 11.3 0.00 0.00 0.00 39 1010.5
20260906001523 27 26 1.6 9.7 0.00 0.00 0.00 45 1010.4
20260906000020 28 35 4.8 11.3 0.00 0.00 0.00 53 1010.4
20260905234515 28 53 1.6 8.0 0.00 0.00 0.00 58 1010.3
20260905233010 29 342 1.6 9.7 0.00 0.00 0.00 60 1010.0
20260905231557 30 304 1.6 8.0 0.00 0.00 0.00 62 1009.9
20260905230050 30 88 3.2 14.5 0.00 0.00 0.00 62 1009.9
20260905224605 30 257 3.2 9.7 0.00 0.00 0.00 62 1009.7
20260905223042 31 156 0.0 8.0 0.00 0.00 0.00 62 1009.8
20260905221540 31 22 3.2 11.3 0.00 0.00 0.00 62 1009.5
20260905220033 31 312 1.6 11.3 0.00 0.00 0.00 62 1009.3
20260905214528 31 295 1.6 11.3 0.00 0.00 0.00 62 1009.3
20260905213033 31 251 1.6 8.0 0.00 0.00 0.00 61 1008.9
20260905211502 31 347 1.6 11.3 0.00 0.00 0.00 59 1009.0
20260905210059 31 332 3.2 8.0 0.00 0.00 0.00 58 1009.2
20260905204543 31 17 3.2 9.7 0.00 0.00 0.00 55 1009.2
20260905203040 31 21 3.2 9.7 0.00 0.00 0.00 54 1009.3
20260905201534 31 53 3.2 8.0 0.00 0.00 0.00 57 1009.5
20260905200032 31 56 3.2 8.0 0.00 0.00 0.00 58 1009.5
20260905194525 32 346 3.2 11.3 0.00 0.00 0.00 60 1009.5
20260905193021 32 243 1.6 9.7 0.00 0.00 0.00 61 1009.6
20260905191516 32 292 3.2 9.7 0.00 0.00 0.00 61 1009.6
20260905190013 32 292 0.0 3.2 0.00 0.00 0.00 60 1009.9
20260905184606 32 181 3.2 9.7 0.00 0.00 0.00 62 1010.1
20260905183047 32 227 0.0 11.3 0.00 0.00 0.00 61 1010.1
20260905181529 31 179 3.2 11.3 0.00 0.00 0.00 62 1010.2
20260905180025 31 227 6.4 12.9 0.00 0.00 0.00 62 1010.4
20260905174531 31 219 3.2 9.7 0.00 0.00 0.00 62 1010.5
20260905173026 31 224 8.0 16.1 0.00 0.00 0.00 62 1010.7
20260905171512 30 232 3.2 11.3 0.00 0.00 0.00 61 1010.9
20260905170008 30 162 4.8 17.7 0.00 0.00 0.00 61 1011.2
20260905164503 30 215 4.8 14.5 0.00 0.00 0.00 61 1011.2
20260905163102 30 148 6.4 17.7 0.00 0.00 0.00 61 1011.2
20260905161542 29 163 3.2 12.9 0.00 0.00 0.00 61 1011.3
20260905160038 29 164 1.6 8.0 0.00 0.00 0.00 60 1011.4
20260905154533 28 144 1.6 8.0 0.00 0.00 0.00 57 1011.4
20260905153029 27 188 1.6 6.4 0.00 0.00 0.00 56 1011.4
20260905151524 27 165 1.6 9.7 0.00 0.00 0.00 56 1011.4
20260905150020 27 173 1.6 12.9 0.00 0.00 0.00 50 1011.4
20260905144516 26 196 3.2 9.7 0.00 0.00 0.00 48 1011.7
20260905143011 26 165 1.6 12.9 0.00 0.00 0.00 46 1011.7
20260905141618 26 167 1.6 8.0 0.00 0.00 0.00 43 1011.4
20260905140053 25 193 0.0 9.7 0.00 0.00 0.00 37 1011.2
20260905134546 25 219 3.2 9.7 0.00 0.00 0.00 31 1011.2
20260905133042 24 74 1.6 8.0 0.00 0.00 0.00 19 1011.1
20260905131553 24 184 3.2 11.3 0.00 0.00 0.00 14 1011.1
20260905130036 23 206 1.6 6.4 0.00 0.00 0.00 16 1011.1
20260905124539 23 115 1.6 6.4 0.00 0.00 0.00 11 1011.3
20260905123025 23 193 0.0 6.4 0.00 0.00 0.00 4 1011.3
20260905121529 22 55 1.6 6.4 0.00 0.00 0.00 2 1011.2
20260905120100 -17 0.0 0.0 0.00 0.00 0.00 1011.2
20260905114555 -17 0.0 0.0 0.00 0.00 0.00 1011.3
20260905113041 -17 0.0 0.0 0.00 0.00 0.00 1011.2
20260905111546 -17 0.0 0.0 0.00 0.00 0.00 1011.0
20260905110030 -17 0.0 0.0 0.00 0.00 0.00 1010.9
20260905104526 -17 0.0 0.0 0.00 0.00 0.00 1010.6
20260905103030 -17 0.0 0.0 0.00 0.00 0.00 1010.5
20260905101526 -17 0.0 0.0 0.00 0.00 0.00 1010.5
20260905100014 -17 0.0 0.0 0.00 0.00 0.00 1010.5
20260905094509 -17 0.0 0.0 0.00 0.00 0.00 1010.3
20260905093047 25 198 0.0 3.2 0.00 0.00 0.00 100 1010.2
20260905091546 25 198 0.0 1.6 0.00 0.00 0.00 100 1010.1
20260905090026 25 198 0.0 1.6 0.00 0.00 0.00 100 1010.1
20260905084546 26 198 0.0 0.0 0.00 0.00 0.00 100 1010.0
20260905083001 26 198 0.0 3.2 0.00 0.00 0.00 100 1010.1
20260905081559 26 198 0.0 3.2 0.00 0.00 0.00 100 1009.9
20260905080052 26 198 0.0 0.0 0.00 0.00 0.00 100 1009.9
20260905074552 26 198 0.0 0.0 0.00 0.00 0.00 100 1010.1
20260905073044 26 198 0.0 0.0 0.00 0.00 0.00 100 1010.2
20260905071540 26 198 0.0 4.8 0.00 0.00 0.00 100 1009.8
20260905070035 26 198 0.0 1.6 0.00 0.00 0.00 100 1009.6
20260905064532 26 195 0.0 1.6 0.00 0.00 0.00 100 1009.2
20260905063015 26 194 0.0 3.2 0.00 0.00 0.00 100 1009.6
20260905061513 26 194 0.0 3.2 0.00 0.00 0.00 100 1009.7
20260905060006 26 194 0.0 4.8 0.00 0.00 0.00 100 1009.8
20260905054502 26 186 0.0 3.2 0.00 0.00 0.00 100 1010.2
20260905053111 27 186 0.0 1.6 0.00 0.00 0.00 100 1010.3
20260905051555 27 186 0.0 4.8 0.00 0.00 0.00 100 1010.3
20260905050048 27 178 1.6 4.8 0.00 0.00 0.00 100 1010.3
20260905044545 27 140 0.0 0.0 0.00 0.00 0.00 100 1010.4
20260905043029 27 140 0.0 1.6 0.00 0.00 0.00 100 1010.6
20260905041525 27 139 0.0 0.0 0.00 0.00 0.00 100 1010.7
20260905040022 27 139 0.0 0.0 0.00 0.00 0.00 100 1010.8
20260905034525 28 139 0.0 0.0 0.00 0.00 0.00 100 1010.9
20260905033012 28 139 0.0 0.0 0.00 0.00 0.00 100 1010.9
20260905031507 28 139 0.0 0.0 0.00 0.00 0.00 100 1011.0
20260905030008 28 139 0.0 0.0 0.00 0.00 0.00 100 1011.0
20260905024637 28 139 0.0 0.0 0.00 0.00 0.00 100 1010.8
20260905023042 29 139 0.0 1.6 0.00 0.00 0.00 100 1010.8
20260905021536 29 139 0.0 3.2 0.00 0.00 0.00 3 1010.6
20260905020016 29 139 0.0 0.0 0.00 0.00 0.00 4 1010.5
20260905014512 30 139 0.0 1.6 0.00 0.00 0.00 12 1010.5
20260905013007 30 139 0.0 1.6 0.00 0.00 0.00 20 1010.4
20260905011503 30 139 0.0 0.0 0.00 0.00 0.00 26 1010.2
20260905010103 31 139 0.0 1.6 0.00 0.00 0.00 31 1010.2
20260905004600 31 139 0.0 1.6 0.00 0.00 0.00 37 1010.0